Terug naar catalogus

STARLINK-36324

ActiefCommunicatieVLEO
NORAD 68091·PAYLOAD·🇺🇸 United States

Gelanceerd Mar 4, 2026 vanaf Vandenberg Space Force Base

Loading…

Volgende Passages (komende 24 uur)

TLE

VersSource: CelesTrak SupGP

Epoch: Sep 14, 2026, 22:42 UTC

1 68091C 26042Y   26257.94631944 -.00010372  00000+0 -30659-3 0  2577
2 68091  53.1589  15.3252 0001317  89.8147 211.9954 15.34379905    12

Volg STARLINK-36324 in realtime met AllMySat

Download on the App Store